Location: Proctor
(47.8934°N, 114.3048°W)
Time: 11:36:17
(UTC+00:00)

AIST 2D - Pass Details

Date: 02 July 2022
Orbit: 433 x 444 km, 97.0° (Epoch: 10 August)

Event Time Altitude Azimuth Distance (km) Brightness Sun altitude
Rises 05:57:24 0° 2° (N) 2,427 ? -15.3°
Reaches altitude 10° 05:59:35 10° 351° (N) 1,554 ? -15.5°
Maximum altitude 06:02:30 28° 290° (WNW) 849 ? -15.7°
Drops below altitude 10° 06:05:23 10° 229° (SW) 1,548 ? -15.9°
Enters shadow 06:05:45 - 227° (SW) 1,688 ? -15.9°
